ORBCOMM FM27

Last updated on Sun Jun 21 2026 00:03:16 GMT+0000 (Coordinated Universal Time)

1 25481U 98053G 26171.45018669 .00000628 00000+0 24657-3 0 9993 2 25481 45.0041 319.8536 0001323 205.5283 154.5500 14.39146142450706
UTC large
Height (km)
Speed (km/s)
/
Latitude / Longitude
Inclination (degrees)
Orbital Period (minutes)
Azimuth
Elevation
Range (km)
Doppler Factor

Next 0 passes for location: London (51.5072 / 0.1276)

No passes found over London.
ORBCOMM FM27